Tracking 35274 objects as of 11-Sep-2026
HD Live streaming from Space Station
objects crossing your sky now

USA 358

Track USA 358 now!
10-day predictions


NORAD ID: 59818
Int'l Code: 2024-096E
Launch date: May 22, 2024
Source: United States (US)
Launch site: AIR FORCE WESTERN TEST RANGE (AFWTR)
Your satellite tracking list
Your tracking list is empty




NASA's NSSDC Master Catalog

Two Line Element Set (TLE):
1 59818U 24096E   26247.80288736 0.00000000  00000-0  00000-0 0    08
2 59818  70.0180 127.0283 0002000  60.8116 299.1884 14.96713200    00
Source of the keplerian elements: MCCANTS